sat.trackr.live / text

‹ back to catalog

STARLINK-37175

NORAD 68401 · 2026-063X

PAYLOAD ACTIVE UNKNOWN

§ Identity

Operator
Country
US
Launch date
2026-03-26
Launch site
AFWTR
Launch vehicle
Mass (kg)
RCS (m²)

Purposes: comms

External: N2YO · Heavens-Above · Gunter

§ Orbital elements

Epoch: 2026-05-25T00:00:02.000160Z

Period
93.90 min
Inclination
97.2848°
Eccentricity
0.0001123
Mean motion
15.33468309 rev/d
Perigee alt
464.7 km
Apogee alt
466.2 km
Semi-major
6,843.6 km
B*
-1.1730e-3
RAAN
287.5156°
Arg perigee
100.7405°
Mean anomaly
12.2754°
Rev number
602

§ Raw data

STARLINK-371751 68401U 26063X   26145.00002315 -.00037785  00000+0 -11730-2 0  99902 68401  97.2848 287.5156 0001123 100.7405  12.2754 15.33468309  6028

JSON: /api/v1/satellites/68401 · /tle

For live sub-satellite position, see the globe view (requires WebGL).

§ Visibility from observer

Set your observer location to see the next 7 days of passes ≥ 10°. The values pass through the URL so the page stays shareable.

No JS? Fill the form by hand. The geolocation button needs JavaScript.